Regional Weather Roundup
Issued by NWS

Home | Current Version | Previous Version | Text Only | Print | Product List | Glossary Off
Versions: 1 2 3 4 5 6 7 8 9 10 11 12 13 14 15 16 17 18 19 20 21 22 23 24 25 26 27 28 29 30 31 32 33 34 35 36 37 38 39 40 41 42 43 44 45 46 47 48 49 50

000
ASUS45 KPSR 010510
RWRAZ

ARIZONA HOURLY REGIONAL WEATHER ROUNDUP
NATIONAL WEATHER SERVICE PHOENIX AZ
1000 PM MST MON AUG 31 2015

NOTE: FAIR INDICATES FEW OR NO CLOUDS BELOW 12,000 FEET WITH NO
SIGNIFICANT WEATHER AND/OR OBSTRUCTIONS TO VISIBILITY.

AZZ001>003-036-010600-
NORTHWEST ARIZONA

CITY           SKY/WX    TMP DP  RH WIND       PRES   REMARKS
BULLHEAD CITY  CLEAR     97  50  20 CALM      29.73S
KINGMAN        CLEAR     81  47  30 S12       29.97R
$$

AZZ004>008-015-016-018-010600-
NORTH CENTRAL ARIZONA

CITY           SKY/WX    TMP DP  RH WIND       PRES   REMARKS
GRAND CANYON   MOCLDY    62  51  67 SE6         N/A
WILLIAMS       PTCLDY    61  48  63 S9        30.31S
PRESCOTT       PTCLDY    74  54  49 S6        30.14S
FLAGSTAFF      PTCLDY    55  51  86 CALM      30.30F
PAYSON         CLOUDY    68  55  64 VRB3      30.19S
PAGE           CLEAR     76  55  48 S12G20    30.06S
$$

AZZ009>014-017-010600-
NORTHEAST ARIZONA

CITY           SKY/WX    TMP DP  RH WIND       PRES   REMARKS
WINSLOW        MOCLDY    65  57  75 S5        30.16F
SAINT JOHNS    CLOUDY    64  55  72 S6        30.26S
WINDOW ROCK    CLOUDY    64  49  57 S6        30.31S
SHOW LOW       CLOUDY    57  55  94 S13       30.32S
$$

AZZ023-010600-
GREATER PHOENIX AREA

CITY           SKY/WX    TMP DP  RH WIND       PRES   REMARKS
PHOENIX          N/A    N/A N/A N/A MISG      29.84R THUNDER
BUCKEYE          N/A     90  57  33 E10       29.83R
LUKE AFB       PTCLDY    88  63  43 S6        29.84R
DEER VALLEY    PTCLDY    84  62  47 NE9G22    29.87R
SCOTTSDALE     MOCLDY    81  66  60 E7G17     29.88F
MESA-GATEWAY     N/A     79  66  65 SE8       29.94R
$$

AZZ027-028-010600-
SOUTHWEST MARICOPA COUNTY AND PINAL COUNTY

CITY           SKY/WX    TMP DP  RH WIND       PRES   REMARKS
CASA GRANDE    CLOUDY    79  66  65 E18G32    29.90R
GILA BEND      CLEAR     95  53  23 S16G23    29.81R
$$

AZZ503-504-507>509-010600-
SOUTHEAST ARIZONA

CITY           SKY/WX    TMP DP  RH WIND       PRES   REMARKS
TUCSON         CLOUDY    85  60  42 SE15      30.03R
DAVIS-MONTHAN  PTCLDY    79  68  70 NE10      30.01S THUNDER
NOGALES        CLOUDY    70  63  78 SE3       30.10S
SIERRA VISTA   CLOUDY    71  60  69 NE3       30.15R
DOUGLAS        CLOUDY    71  59  65 S6        30.11R
SAFFORD        LGT RAIN  72  68  87 N7        30.11F
$$

AZZ020-021-025-026-031-010600-
SOUTHWEST ARIZONA

CITY           SKY/WX    TMP DP  RH WIND       PRES   REMARKS
YUMA           MOCLDY    90  67  46 SE14      29.75R
$$

CAZ031-033-041-043-047-048-061-010600-
SOUTHERN CALIFORNIA

CITY           SKY/WX    TMP DP  RH WIND       PRES   REMARKS
DOWNTOWN L.A.  MOCLDY    71  64  78 VRB3      29.89R
L.A. AIRPORT   PTCLDY    70  65  84 W7        29.90R
SAN DIEGO      MOCLDY    70  61  73 SW9       29.93R
BURBANK        CLEAR     71  63  75 S5        29.90R
ONTARIO        CLEAR     70  61  73 SW7       29.90R
RIVERSIDE      CLEAR     71  61  70 W3        29.90R
PALM SPRINGS   CLEAR     91  46  21 NW16G23   29.76R
EL CENTRO NAS  PTCLDY    92  27   9 W10       29.74R
IMPERIAL       CLEAR     92  36  14 W10       29.72R
BLYTHE         CLEAR     97  43  15 S9        29.73R
NEEDLES        CLEAR     96  44  16 SW7       29.74R
$$

NVZ020-UTZ003-010600-
SOUTHERN NEVADA-UTAH

CITY           SKY/WX    TMP DP  RH WIND       PRES   REMARKS
LAS VEGAS      CLEAR     91  34  13 S7        29.80R
SALT LAKE CITY CLEAR     74  40  29 SE9       29.96S
$$

NMZ009-TXZ055-010600-
NEW MEXICO-WEST TEXAS

CITY           SKY/WX    TMP DP  RH WIND       PRES   REMARKS
ALBUQUERQUE    MOCLDY    74  48  39 W5        30.17R
EL PASO        PTCLDY    84  44  24 SW6       30.02S
$$


........................KEY........................
SKY/WX - SKY CONDITION/WEATHER
TMP    - TEMPERATURE IN FAHRENHEIT
DP     - DEW POINT IN FAHRENHEIT
RH     - RELATIVE HUMIDITY IN PERCENT
WIND   - DIRECTION AND SPEED IN MILES PER HOUR (MPH)
VRB    - VARIABLE WIND DIRECTION
PRES   - MEAN SEA LEVEL PRESSURE IN INCHES OF MERCURY
         F - FALLING PRESSURE   R - RISING PRESSURE
         S - STEADY PRESSURE
VSB    - VISIBILITY IN MILES
HX     - HEAT INDEX IN FAHRENHEIT
WCI    - WIND CHILL INDEX IN FAHRENHEIT
TC     - TEMPERATURE IN CELSIUS WHICH IS ALSO KNOWN AS
         TEMPERATURE IN CENTIGRADE
AFB    - AIR FORCE BASE
         LUKE AFB IS LUKE AIR FORCE BASE
         DAVIS-MONTHAN IS DAVIS-MONTHAN AIR FORCE BASE
NAS    - NAVAL AIR STATION
         EL CENTRO NAS IS EL CENTRO NAVAL AIR STATION
N/A    - NOT AVAILABLE



USA.gov is the U.S. government's official web portal to all federal, state and local government web resources and services.